Location: Newark
(38.0892°N, 27.7378°E)
Time: 19:07:49
(UTC+00:00)

N. Korean satellite - Pass Details

Date: 18 December 2019
Orbit: 454 x 507 km, 97.2° (Epoch: 28 January)

Event Time Altitude Azimuth Distance (km) Brightness Sun altitude
Rises 15:17:38 0° 170° (S) 2,591 10.5 -5.4°
Reaches altitude 10° 15:19:43 10° 172° (S) 1,707 9.6 -5.8°
Maximum altitude 15:23:24 77° 257° (WSW) 518 6.9 -6.5°
Drops below altitude 10° 15:27:04 10° 345° (NNW) 1,698 9.2 -7.1°
Sets 15:29:08 0° 347° (NNW) 2,577 10.1 -7.5°
